Detroit, MI

11:40 AM EDT on May 25, 2018 (GMT -0400)
Detroit City

Weather History for KDET - September, 2012

Change the Weather History Date:

Tuesday, September 25, 2012

  Actual Average Record
Temperature  
Mean Temperature 60 °F -  
Max Temperature 68 °F 68 °F 89 °F (2017)
Min Temperature 52 °F 51 °F 39 °F (1976)
Degree Days  
Heating Degree Days 5    
Growing Degree Days 10 (Base 50)    
Moisture  
Dew Point 46 °F    
Average Humidity 61    
Maximum Humidity 90    
Minimum Humidity 45    
Precipitation  
Precipitation 0.00 in - - ()
Sea Level Pressure  
Sea Level Pressure 29.92 in    
Wind  
Wind Speed 10 mph (SW)    
Max Wind Speed 14 mph    
Max Gust Speed 21 mph    
Visibility 10 miles    
Events      
Averages and records for this station are not official NWS values.
T = Trace of Precipitation, MM = Missing Value Source: NWS Daily Summary

Daily Weather History Graph

Daily Weather History Graph

Search for Another Location

Airport or City:

Astronomy

Sep. 25, 2012 Rise Set
Actual Time 7:23 AM EDT 7:23 PM EDT
Civil Twilight 6:55 AM EDT 7:51 PM EDT
Nautical Twilight 6:22 AM EDT 8:23 PM EDT
Astronomical Twilight 5:48 AM EDT 8:57 PM EDT
Moon 4:51 PM EDT 2:38 AM EDT
Length of Visible Light 12h 56m
Length of Day
12h 00m
Waxing Gibbous, 80% of the Moon is Illuminated
Sep 25
Waxing Gibbous
Sep 29
Full
Oct 8
Last Quarter
Oct 15
New
Oct 21
First Quarter

Hourly Weather History & Observations

Time (EDT) Temp. Dew Point Humidity Pressure Visibility Wind Dir Wind Speed Gust Speed Precip Events Conditions
12:53 AM 55.9 °F 35.1 °F 45% 29.96 in 10.0 mi SW 10.4 mph - N/A   Clear
1:53 AM 55.9 °F 36.0 °F 47% 29.96 in 10.0 mi SW 10.4 mph - N/A   Clear
2:53 AM 55.9 °F 36.0 °F 47% 29.95 in 10.0 mi SW 12.7 mph - N/A   Clear
3:53 AM 55.0 °F 37.0 °F 51% 29.95 in 10.0 mi SW 12.7 mph 19.6 mph N/A   Clear
4:53 AM 55.0 °F 37.9 °F 53% 29.95 in 10.0 mi SW 9.2 mph - N/A   Clear
5:53 AM 53.1 °F 37.9 °F 57% 29.95 in 10.0 mi SW 9.2 mph 17.3 mph N/A   Clear
6:53 AM 52.0 °F 39.0 °F 61% 29.95 in 10.0 mi SW 5.8 mph - N/A   Clear
7:53 AM 53.1 °F 39.0 °F 59% 29.94 in 10.0 mi SW 9.2 mph - N/A   Clear
8:53 AM 55.0 °F 41.0 °F 59% 29.96 in 10.0 mi SW 10.4 mph - N/A   Mostly Cloudy
9:53 AM 57.0 °F 41.0 °F 55% 29.99 in 10.0 mi SW 12.7 mph - N/A   Mostly Cloudy
11:53 AM 64.9 °F 44.1 °F 47% 29.94 in 10.0 mi WSW 8.1 mph - N/A   Clear
12:53 PM 66.9 °F 46.0 °F 47% 29.93 in 10.0 mi SSW 6.9 mph - N/A   Mostly Cloudy
1:53 PM 66.0 °F 48.0 °F 52% 29.91 in 10.0 mi South 8.1 mph - N/A   Overcast
2:53 PM 64.4 °F 48.2 °F 56% 29.90 in 10.0 mi South 11.5 mph - N/A   Overcast
3:53 PM 66.9 °F 48.9 °F 52% 29.89 in 10.0 mi SSW 11.5 mph 18.4 mph N/A   Overcast
4:53 PM 66.9 °F 50.0 °F 54% 29.88 in 10.0 mi SSW 13.8 mph 20.7 mph N/A   Overcast
5:53 PM 68.0 °F 51.1 °F 55% 29.88 in 10.0 mi SSW 13.8 mph - N/A   Overcast
6:53 PM 66.0 °F 51.1 °F 59% 29.89 in 10.0 mi SW 13.8 mph 19.6 mph N/A   Mostly Cloudy
7:53 PM 63.0 °F 53.1 °F 70% 29.89 in 10.0 mi SSW 6.9 mph - N/A   Clear
8:53 PM 62.1 °F 54.0 °F 75% 29.90 in 10.0 mi SW 9.2 mph - N/A   Clear
9:53 PM 61.0 °F 57.0 °F 87% 29.91 in 10.0 mi SW 8.1 mph - N/A   Clear
10:10 PM 62.6 °F 57.2 °F 82% 29.91 in 10.0 mi SW 10.4 mph - N/A   Mostly Cloudy
10:36 PM 60.8 °F 57.2 °F 88% 29.91 in 9.0 mi SW 6.9 mph - N/A   Scattered Clouds
10:53 PM 61.0 °F 57.0 °F 87% 29.91 in 9.0 mi SW 8.1 mph - N/A   Clear
11:53 PM 61.0 °F 57.9 °F 90% 29.91 in 8.0 mi SW 6.9 mph - N/A   Mostly Cloudy